Vertical_Velocity
3 -2 -2 -2 -2 -2 -1 -2 -1 -1 -3 -0 -1 -1 0 -3 1 0 -2 -1 1 2 1 3 3 -2 -2 0 -2 -1 0 0 1 3 2 1 -0 -0 -2 1 -2 1 -2
-2 -1 -1 -2 -2 -1 -3 -3 -2 -0 -3 -3 -1 0 1 -2 -0 2 -1 -2 0 3 5 -3 11 1 -2 0 -2 0 -0 -1 -1 1 1 -1 0 -1 1 2 1 0 2
1 0 -2 -3 -1 -1 -1 1 -1 -0 -1 -2 -3 -1 0 -1 2 1 0 0 -0 2 3 8 10 -10 -1 1 1 -2 -2 -1 1 -0 -1 1 0 0 2 1 2 2 2
0 -0 -2 -4 -2 -2 -1 -2 -1 2 -1 -1 -1 -1 -1 -1 0 -1 -1 -0 0 1 2 2 7 0 2 0 1 0 1 -1 -0 -1 -2 3 -0 1 1 0 2 5 1
1 -0 -0 -2 -1 -2 -2 -1 1 2 -0 -2 -1 -2 -3 -0 1 -0 2 3 0 -1 -0 4 4 13 0 2 2 0 1 3 6 5 -0 2 -2 1 -2 2 2 1 0
2 -1 1 -2 -1 -1 -4 -1 0 1 -1 -3 -2 -3 -1 2 -0 -1 -2 1 -2 -0 8 1 4 -3 1 2 3 3 3 0 5 3 3 3 4 15 4 10 2 5 3
1 -1 0 -0 1 1 -2 -0 -1 1 3 -5 -3 -3 -0 6 0 -1 -0 -3 0 1 2 -1 23 -20 3 3 6 2 1 1 3 4 4 4 2 4 6 7 11 23 14
-1 -2 1 -1 0 -0 -1 1 2 -0 2 -4 -1 -2 2 2 1 -3 -0 0 0 0 7 -0 4 -14 2 11 10 7 1 6 2 4 1 2 9 3 2 2 -1 -1 4
-2 -1 -1 0 1 -2 -1 1 -1 -0 3 -5 -1 -3 3 3 2 -0 -2 -2 2 2 -5 9 73 -23 12 -0 2 6 4 6 1 3 2 3 3 4 1 1 3 3 -2
-1 -1 -2 -1 0 0 -1 -1 -2 1 -1 -1 -3 -2 2 0 -0 -1 -3 1 -4 4 2 -11 -49 24 -2 2 -1 -3 3 -1 1 4 0 5 3 3 2 0 -3 -2 3
1 2 -3 0 -3 -3 -5 2 -2 0 2 -6 0 -2 -1 -2 3 1 -1 -3 -0 4 -10 -4 -13 0 11 7 -1 1 -10 5 5 4 1 -0 3 1 -3 -10 1 1 -1
-1 2 2 3 -3 -2 1 0 1 -1 -1 -3 0 0 -3 -0 2 1 -1 -0 4 -14 -12 4 -29 25 11 11 7 5 8 5 5 0 -1 -3 0 4 3 6 5 4 4
-0 -2 2 -3 -2 -1 -4 0 -4 3 -2 -3 2 -0 -2 -1 -2 2 2 2 -1 6 16 2 14 7 7 -0 -1 12 8 10 2 -1 -3 -4 -2 1 3 -2 0 1 2
2 1 2 1 3 -4 0 -3 -1 -0 -2 -0 -1 0 -1 0 -6 2 -1 -6 22 -1 9 0 2 5 -1 4 5 1 -0 9 2 0 5 8 2 10 -13 -2 0 2 -1
1 5 3 4 0 -0 -2 -2 -5 -0 -1 -1 -0 -2 1 0 -1 -4 -2 -8 31 17 -15 1 1 2 5 16 28 17 8 -2 -9 4 -0 4 10 6 -2 -3 0 2 0
3 2 4 5 2 2 1 -1 -2 -3 2 -1 1 -1 -0 1 -2 1 -2 6 -9 -16 -5 10 9 4 6 13 7 -1 3 5 5 0 1 1 -1 -2 -2 -0 0 1 -1
6 0 3 4 -0 3 4 -4 1 -3 0 -0 -1 -2 1 2 -3 1 3 2 4 5 14 21 5 1 3 -2 4 -0 4 1 2 -3 -3 -1 2 -1 0 -0 -1 1 -0
3 1 6 5 0 3 5 2 -1 -2 -0 -2 -0 -2 1 -0 3 -2 -2 -1 5 -3 -11 3 11 6 1 -3 -3 -2 0 0 0 2 -1 2 1 1 0 0 -3 1 0
13 1 1 4 2 3 3 1 -1 -1 -4 -1 -2 0 -1 -0 -1 1 -0 -5 -2 1 -7 -5 -3 3 0 0 -0 -0 -4 -2 2 2 1 3 2 -1 -1 -1 -1 -2 -1
-7 5 7 8 5 3 2 3 1 -4 -2 -3 -3 2 -4 -0 -1 2 1 2 5 9 11 1 4 2 5 7 -1 3 0 0 3 3 1 -1 -2 -1 -2 -2 1 -1 -1
3 2 -8 3 5 0 4 0 1 0 2 -3 -2 -1 1 -3 -2 -2 -0 -1 -2 8 6 10 -2 3 2 1 8 3 4 -10 -3 4 1 1 1 -0 -2 1 -1 -1 -2
2 0 11 -8 7 3 1 4 4 3 5 2 -0 1 -0 -2 -4 -3 -2 -0 -3 3 4 3 5 0 -7 4 -1 6 2 -1 1 -1 -1 -0 -1 -1 -1 1 -2 -1 0
2 4 6 1 -0 6 -6 4 4 -0 0 -1 -3 -3 1 -0 1 -1 -3 1 0 2 8 7 2 -1 -5 -4 -5 -1 -4 -11 3 -0 1 0 1 2 -0 -1 -0 -1 2
3 2 4 5 -0 2 3 0 2 5 4 7 3 1 2 2 -1 -1 -3 -5 -5 -2 -6 1 -7 -3 -5 -0 3 -2 -4 8 -4 -1 0 0 -1 -0 -1 -3 -1 -3 1
1 4 5 8 6 4 3 1 2 0 7 6 4 3 1 1 0 0 -0 -2 -4 -4 -0 1 -1 -3 2 4 -8 1 2 4 1 1 4 1 -2 1 1 -1 -2 1 -3
1 1 3 4 5 6 10 5 2 -1 1 3 -0 1 2 3 1 -1 1 3 1 -1 -2 -1 -3 -1 -0 -1 3 -1 1 -1 -0 -1 2 -3 -1 2 3 5 -4 -2 -2
Height
3099 3098 3098 3098 3098 3099 3099 3100 3100 3100 3101 3102 3102 3103 3105 3106 3108 3109 3111 3113 3115 3117 3118 3119 3121 3123 3125 3127 3129 3130 3131 3132 3134 3135 3137 3138 3140 3142 3144 3147 3149 3151 3154
3096 3096 3096 3096 3096 3096 3097 3097 3098 3098 3098 3099 3100 3101 3103 3104 3105 3108 3109 3112 3114 3116 3117 3118 3119 3121 3124 3126 3128 3130 3132 3133 3134 3135 3137 3139 3141 3143 3145 3148 3150 3153 3155
3094 3094 3094 3094 3094 3094 3095 3095 3095 3095 3096 3097 3098 3099 3101 3102 3103 3105 3107 3110 3112 3114 3116 3117 3118 3117 3123 3125 3128 3130 3132 3133 3135 3136 3138 3140 3142 3145 3147 3149 3152 3155 3158
3092 3091 3091 3092 3092 3092 3092 3093 3093 3093 3094 3094 3095 3097 3098 3099 3101 3104 3106 3108 3110 3112 3114 3115 3116 3117 3122 3124 3127 3129 3132 3134 3135 3136 3138 3141 3143 3146 3148 3151 3154 3156 3159
3088 3088 3089 3089 3089 3090 3090 3091 3090 3091 3091 3092 3093 3094 3096 3097 3099 3102 3104 3105 3107 3110 3112 3114 3114 3115 3120 3124 3126 3128 3131 3134 3136 3137 3139 3141 3144 3146 3150 3152 3155 3158 3160
3085 3085 3086 3087 3087 3087 3088 3088 3088 3088 3088 3089 3090 3091 3092 3094 3097 3099 3101 3103 3105 3107 3108 3111 3112 3111 3118 3122 3125 3128 3131 3133 3136 3138 3140 3142 3145 3147 3150 3153 3156 3159 3160
3082 3083 3084 3084 3084 3085 3084 3084 3085 3085 3085 3087 3087 3088 3089 3091 3093 3096 3098 3101 3103 3104 3104 3107 3105 3105 3114 3120 3124 3127 3130 3133 3136 3139 3141 3144 3146 3149 3151 3153 3156 3157 3158
3079 3080 3080 3081 3081 3081 3082 3081 3082 3082 3083 3084 3085 3085 3086 3088 3089 3091 3094 3096 3099 3100 3100 3102 3097 3102 3106 3116 3121 3125 3129 3133 3136 3139 3142 3144 3147 3149 3151 3153 3156 3158 3159
3075 3076 3077 3078 3077 3078 3078 3078 3079 3079 3080 3081 3081 3082 3083 3084 3086 3089 3091 3094 3095 3097 3097 3099 3089 3099 3108 3111 3118 3124 3127 3130 3134 3138 3141 3144 3146 3148 3151 3154 3156 3158 3160
3070 3072 3073 3074 3074 3074 3075 3075 3076 3077 3077 3079 3077 3078 3079 3080 3082 3085 3086 3089 3091 3092 3094 3097 3088 3101 3108 3113 3118 3121 3125 3128 3134 3136 3140 3143 3146 3148 3150 3153 3156 3159 3162
3065 3067 3069 3070 3071 3071 3070 3073 3073 3073 3074 3074 3074 3075 3076 3075 3079 3080 3083 3084 3085 3085 3082 3089 3090 3098 3105 3109 3113 3119 3123 3124 3130 3134 3139 3142 3144 3146 3149 3153 3157 3160 3162
3058 3061 3065 3067 3067 3067 3067 3069 3069 3069 3071 3071 3071 3072 3073 3073 3077 3078 3079 3078 3082 3081 3079 3086 3089 3099 3103 3107 3110 3115 3119 3123 3128 3133 3138 3141 3145 3148 3151 3155 3158 3160 3162
3054 3056 3060 3061 3062 3064 3063 3066 3066 3066 3067 3068 3068 3068 3070 3069 3073 3075 3075 3072 3073 3079 3084 3087 3095 3100 3104 3108 3112 3115 3119 3123 3128 3133 3137 3141 3144 3147 3150 3154 3157 3159 3161
3050 3052 3056 3056 3057 3059 3060 3061 3063 3062 3064 3065 3065 3065 3066 3066 3069 3072 3075 3073 3071 3073 3083 3090 3096 3100 3103 3109 3114 3117 3121 3124 3128 3130 3135 3139 3142 3145 3149 3153 3156 3158 3160
3044 3047 3050 3052 3053 3054 3056 3057 3058 3059 3060 3062 3062 3061 3063 3064 3067 3068 3073 3077 3080 3075 3084 3089 3095 3099 3102 3108 3109 3114 3119 3122 3128 3131 3136 3140 3142 3143 3147 3151 3153 3156 3158
3039 3042 3045 3047 3048 3049 3052 3053 3054 3055 3057 3058 3060 3059 3060 3063 3066 3069 3071 3075 3078 3080 3084 3089 3093 3099 3102 3105 3108 3111 3115 3119 3123 3128 3132 3136 3140 3142 3145 3148 3150 3153 3156
3033 3034 3039 3042 3043 3045 3047 3048 3050 3051 3054 3055 3056 3057 3058 3061 3064 3068 3071 3075 3078 3080 3085 3089 3092 3097 3101 3104 3107 3108 3114 3119 3124 3127 3131 3134 3138 3141 3144 3146 3148 3151 3153
3025 3028 3032 3035 3038 3040 3043 3044 3045 3048 3050 3051 3053 3054 3056 3058 3061 3066 3069 3073 3077 3078 3083 3086 3090 3094 3098 3102 3105 3109 3113 3117 3121 3126 3129 3133 3136 3139 3142 3144 3147 3149 3151
3016 3019 3025 3029 3032 3034 3038 3039 3041 3044 3046 3047 3050 3052 3054 3056 3058 3061 3065 3070 3072 3076 3078 3082 3086 3089 3095 3099 3102 3106 3112 3116 3120 3124 3127 3130 3133 3136 3139 3142 3145 3147 3149
3001 3007 3015 3021 3025 3027 3031 3033 3037 3040 3042 3043 3045 3048 3051 3054 3056 3057 3061 3065 3068 3071 3074 3078 3082 3086 3091 3096 3101 3106 3110 3114 3118 3121 3124 3127 3130 3133 3136 3139 3143 3145 3147
2994 2999 3004 3012 3017 3018 3024 3028 3031 3034 3037 3040 3042 3044 3047 3051 3054 3055 3057 3062 3066 3069 3072 3075 3079 3084 3089 3094 3100 3103 3108 3112 3117 3119 3122 3125 3128 3131 3134 3137 3139 3141 3143
2984 2988 2995 2999 3007 3010 3016 3022 3026 3029 3032 3036 3039 3042 3044 3047 3050 3052 3055 3059 3063 3066 3069 3072 3077 3080 3085 3093 3097 3101 3105 3110 3113 3117 3120 3123 3125 3128 3132 3134 3137 3139 3140
2977 2979 2982 2989 2995 3000 3007 3013 3018 3021 3025 3030 3034 3037 3040 3042 3045 3049 3052 3055 3059 3064 3067 3070 3074 3078 3084 3091 3095 3100 3103 3107 3111 3114 3117 3120 3123 3126 3128 3131 3133 3136 3138
2969 2972 2974 2978 2984 2991 2998 3002 3009 3017 3021 3026 3029 3033 3036 3040 3043 3046 3049 3053 3057 3061 3065 3069 3073 3080 3085 3089 3094 3098 3102 3106 3108 3112 3114 3117 3120 3123 3125 3128 3130 3132 3134
2958 2963 2967 2971 2976 2984 2989 2993 3002 3008 3015 3019 3022 3028 3031 3035 3040 3043 3046 3050 3054 3059 3063 3068 3072 3078 3082 3087 3091 3096 3099 3103 3105 3110 3112 3114 3118 3120 3123 3125 3127 3129 3130
2946 2952 2957 2962 2967 2973 2980 2986 2993 2999 3004 3010 3015 3020 3025 3030 3034 3039 3043 3048 3052 3056 3061 3066 3070 3075 3080 3083 3087 3091 3096 3100 3103 3106 3109 3111 3114 3116 3118 3120 3122 3124 3126